MST,Max TemperatureF,Mean TemperatureF,Min TemperatureF,Max Dew PointF,MeanDew PointF,Min DewpointF,Max Humidity, Mean Humidity, Min Humidity, Max Sea Level PressureIn, Mean Sea Level PressureIn, Min Sea Level PressureIn, Max VisibilityMiles, Mean VisibilityMiles, Min VisibilityMiles, Max Wind SpeedMPH, Mean Wind SpeedMPH, Max Gust SpeedMPH,PrecipitationIn, CloudCover, Events, WindDirDegrees
2012-11-1,64,55,48,31,27,23,48,35,24,29.88,29.77,29.67,10,10,10,12,6,,0.00,2,,243
2012-11-2,54,44,35,35,30,27,83,62,38,30.18,30.04,29.84,10,10,10,28,14,47,0.00,2,,325
2012-11-3,57,44,32,29,24,21,79,49,26,30.17,30.12,30.06,10,10,10,10,5,,0.00,0,,199
2012-11-4,54,49,42,40,31,21,79,55,36,30.27,30.16,30.02,10,10,10,29,9,38,0.00,,Rain,311
2012-11-5,64,52,39,36,33,28,73,51,31,30.24,30.09,29.97,10,10,10,15,5,24,0.00,0,,210
2012-11-6,57,46,36,35,31,26,83,54,32,30.22,30.13,29.97,10,10,10,12,5,,0.00,0,,199
2012-11-7,73,58,42,35,24,17,65,33,13,29.94,29.80,29.68,10,10,10,36,6,48,0.00,0,,268
2012-11-8,48,39,30,30,25,22,79,58,41,29.99,29.85,29.69,10,10,10,20,11,28,0.00,0,,164
2012-11-9,32,28,24,27,26,21,96,90,80,29.74,29.65,29.59,10,3,0,28,11,38,0.21,8,Fog-Rain-Snow,342
2012-11-10,24,14,3,21,10,1,93,82,73,30.09,29.78,29.62,10,3,0,33,24,45,0.01,7,Fog-Snow,346
2012-11-11,19,10,0,12,4,-8,84,69,50,30.28,30.13,29.96,10,7,1,9,3,,0.00,4,Snow,235
2012-11-12,33,22,10,21,10,-2,66,54,45,30.32,30.25,30.16,10,10,10,13,4,,0.00,0,,230
2012-11-13,39,34,28,29,23,19,78,65,52,30.29,30.22,30.15,10,10,10,8,4,,0.00,4,,251
2012-11-14,45,36,26,27,22,17,75,60,40,30.27,30.17,30.09,10,10,10,13,5,21,0.00,2,,273
2012-11-15,44,35,26,29,22,13,73,62,43,30.38,30.26,30.12,10,10,10,14,6,22,0.00,0,,233
2012-11-16,46,38,30,26,20,9,58,44,32,30.10,30.01,29.93,10,10,10,14,5,23,0.00,0,,284
2012-11-17,51,42,34,28,24,20,62,48,33,30.07,29.98,29.81,10,10,10,9,6,,0.00,,,221
2012-11-18,52,46,36,31,27,22,79,51,37,30.06,29.83,29.73,10,10,10,14,7,24,0.00,,,301
2012-11-19,52,40,28,29,26,21,82,60,38,30.10,30.05,29.98,10,10,10,24,5,30,0.00,,,220
2012-11-20,61,47,33,32,26,20,48,39,29,30.01,29.92,29.78,10,10,10,28,6,35,0.00,0,,232
2012-11-21,67,52,36,34,27,24,70,45,20,29.81,29.71,29.57,10,10,8,33,12,44,T,1,Snow,280
2012-11-22,40,30,19,28,18,9,85,59,32,30.54,30.19,29.86,10,8,1,37,14,48,T,4,Snow,331
2012-11-23,49,34,19,21,15,7,68,44,19,30.51,30.32,30.00,10,10,10,17,7,21,0.00,0,,206
2012-11-24,54,46,37,34,23,13,76,49,21,30.00,29.94,29.88,10,10,10,14,5,25,0.00,6,,334
2012-11-25,37,31,24,34,28,21,100,93,85,30.24,30.01,29.91,10,3,0,16,5,22,0.52,8,Fog-Rain-Snow,360
2012-11-26,28,21,13,22,17,3,100,73,45,30.40,30.26,30.12,10,5,0,14,6,17,0.01,5,Fog-Snow,259
2012-11-27,36,27,17,18,11,4,62,50,37,30.27,30.20,30.16,10,10,10,15,6,20,0.00,0,,235
2012-11-28,51,38,25,23,18,11,54,39,24,30.14,30.02,29.81,10,10,10,23,6,26,0.00,0,,244
2012-11-29,52,43,34,31,24,14,70,47,24,29.98,29.90,29.78,10,10,2,14,4,15,0.00,2,,264
2012-11-30,52,42,31,28,24,21,64,51,38,29.88,29.79,29.67,10,10,10,14,6,18,0.00,0,,263